TimeCDT,TemperatureF,Dew PointF,Humidity,Sea Level PressureIn,VisibilityMPH,Wind Direction,Wind SpeedMPH,Gust SpeedMPH,PrecipitationIn,Events,Conditions,WindDirDegrees,DateUTC
12:52 AM,30.9,27.0,85,30.33,10.0,North,8.1,-,N/A,,Clear,350,2012-10-27 05:52:00
1:52 AM,32.0,27.0,82,30.32,10.0,North,5.8,-,N/A,,Clear,10,2012-10-27 06:52:00
2:52 AM,30.0,26.1,85,30.31,10.0,North,6.9,-,N/A,,Clear,350,2012-10-27 07:52:00
3:52 AM,28.9,26.1,89,30.32,10.0,North,4.6,-,N/A,,Clear,350,2012-10-27 08:52:00
4:52 AM,28.9,26.1,89,30.32,10.0,North,8.1,-,N/A,,Clear,350,2012-10-27 09:52:00
5:52 AM,30.0,26.1,85,30.33,10.0,North,6.9,-,N/A,,Clear,360,2012-10-27 10:52:00
6:52 AM,28.9,25.0,85,30.34,10.0,North,5.8,-,N/A,,Clear,360,2012-10-27 11:52:00
7:52 AM,28.0,25.0,88,30.36,10.0,North,5.8,-,N/A,,Clear,350,2012-10-27 12:52:00
8:52 AM,33.1,27.0,78,30.36,10.0,NNE,9.2,-,N/A,,Clear,30,2012-10-27 13:52:00
10:52 AM,39.9,28.0,63,30.35,10.0,NNE,11.5,-,N/A,,Clear,30,2012-10-27 15:52:00
11:52 AM,43.0,28.0,56,30.34,10.0,NE,9.2,-,N/A,,Clear,50,2012-10-27 16:52:00
12:52 PM,44.1,28.0,53,30.32,10.0,NNE,8.1,-,N/A,,Clear,30,2012-10-27 17:52:00
1:52 PM,46.9,28.9,50,30.28,10.0,North,11.5,-,N/A,,Clear,360,2012-10-27 18:52:00
2:52 PM,46.0,28.0,50,30.26,10.0,North,9.2,-,N/A,,Clear,360,2012-10-27 19:52:00
3:52 PM,46.9,28.0,48,30.25,10.0,North,11.5,-,N/A,,Clear,360,2012-10-27 20:52:00
4:52 PM,46.0,28.0,50,30.24,10.0,North,9.2,-,N/A,,Clear,360,2012-10-27 21:52:00
5:52 PM,44.1,27.0,51,30.23,10.0,North,8.1,-,N/A,,Clear,10,2012-10-27 22:52:00
6:52 PM,37.0,28.0,70,30.24,10.0,NNW,5.8,-,N/A,,Clear,340,2012-10-27 23:52:00
7:52 PM,37.0,27.0,67,30.24,10.0,North,5.8,-,N/A,,Clear,350,2012-10-28 00:52:00
8:52 PM,34.0,27.0,75,30.26,10.0,North,6.9,-,N/A,,Clear,350,2012-10-28 01:52:00
9:52 PM,35.1,27.0,72,30.27,10.0,North,5.8,-,N/A,,Clear,10,2012-10-28 02:52:00
10:52 PM,34.0,27.0,75,30.27,10.0,North,5.8,-,N/A,,Clear,10,2012-10-28 03:52:00
11:52 PM,34.0,26.1,73,30.27,10.0,NNE,5.8,-,N/A,,Clear,30,2012-10-28 04:52:00